{"data":{"norad_id":64927,"epoch":"2026-09-20T10:08:42.538848Z","epoch_age_seconds":130916,"freshness":"FRESH","line1":"1 64927U 25157Z   26263.42271457  .00019344  00000+0  58198-3 0  9993","line2":"2 64927  53.1591 157.9264 0000594 241.3060 118.7883 15.34410844 65700","mean_motion":15.34410844,"eccentricity":5.94e-5,"inclination_deg":53.1591,"raan_deg":157.9264,"arg_perigee_deg":241.306,"mean_anomaly_deg":118.7883,"bstar":0.00058198,"rev_number":6570,"period_min":93.847094839744,"perigee_km":462.26466574787,"apogee_km":463.07735373943,"semimajor_km":6840.8080097437,"source":"CELESTRAK","updated_at":"2026-09-21T09:00:35.484500Z"}}